Lid_Strength_Index
8 12 14 13 12 10 11 12 12 10 8 9 10 10 9 7 7 7 7 7 6 6 4 3 2 2 3 2 3 2 2 1 2 2 2 2 2 1 2 4 4 5 6 7
12 14 11 10 10 10 11 12 12 10 8 10 10 11 9 8 8 7 7 7 7 6 5 4 3 3 3 3 2 2 2 2 2 2 3 1 2 2 2 4 4 6 7 7
14 12 9 10 11 11 12 12 12 12 10 9 10 13 11 9 8 7 7 6 6 6 6 5 4 4 3 3 3 2 3 2 2 2 2 1 2 3 3 5 6 6 7 6
12 10 10 11 11 11 14 9 9 10 13 16 11 18 13 10 10 9 8 7 6 6 5 4 4 4 4 3 3 3 3 3 2 1 1 2 2 3 4 5 6 6 7 7
14 12 12 12 12 10 12 9 10 10 13 14 13 16 15 11 12 10 9 7 6 5 5 5 4 3 3 2 3 3 3 2 2 2 3 2 3 4 5 6 6 7 6 6
12 10 11 12 10 10 9 9 11 11 13 18 14 15 16 14 12 10 8 7 6 6 5 4 4 3 3 2 2 2 2 3 2 2 2 3 4 4 5 5 6 6 6 6
13 12 11 10 12 10 11 13 19 18 19 20 13 15 15 11 10 10 9 8 6 6 5 5 5 4 4 3 3 2 2 2 2 1 2 1 3 3 4 5 5 6 7 7
16 17 13 12 12 13 13 13 19 24 22 19 13 18 14 9 8 8 7 7 6 7 6 5 4 4 3 3 3 2 2 3 2 1 2 2 4 4 4 5 5 5 7 6
16 15 12 12 11 12 13 15 11 16 16 19 17 13 10 9 9 8 9 7 7 7 7 7 6 5 3 3 3 2 3 3 3 4 3 4 4 4 5 5 5 5 5 6
14 18 13 11 11 10 13 11 15 15 21 21 17 17 16 12 11 9 10 9 8 7 7 7 7 6 5 5 5 4 4 4 4 5 4 4 4 4 4 3 4 4 4 4
14 16 15 13 14 14 13 14 14 14 15 19 20 17 12 11 10 10 9 9 8 7 7 7 7 6 6 5 6 6 5 6 6 7 6 6 6 5 5 5 5 5 6 6
13 15 17 16 13 12 13 15 15 18 18 16 16 16 9 9 8 9 9 9 8 7 8 8 8 7 7 6 7 8 8 8 8 7 8 8 7 7 6 6 6 6 7 6
13 15 18 18 15 14 15 13 14 15 16 17 19 17 9 8 9 9 9 9 9 8 8 9 9 8 8 8 8 8 8 8 8 8 8 9 9 10 10 9 7 6 6 6
10 14 16 18 16 15 16 15 14 16 19 18 17 15 11 10 9 9 9 10 8 9 9 9 10 9 8 8 9 9 9 9 9 9 10 11 11 11 11 11 11 11 10 10
13 16 14 14 14 14 15 15 14 16 16 18 16 15 12 9 9 8 9 9 9 9 9 9 10 10 10 11 11 11 11 11 11 11 11 11 11 11 11 11 10 11 10 11
13 16 15 16 13 14 15 14 14 15 15 16 15 15 12 9 8 8 8 8 9 9 9 10 10 11 11 11 11 10 10 10 10 10 10 10 10 10 10 11 11 11 11 11
14 15 16 18 14 15 17 15 14 14 14 14 16 13 11 10 8 8 8 7 8 9 9 9 9 10 10 10 10 10 10 10 10 10 10 10 10 11 11 11 11 12 12 12
14 14 15 18 16 19 14 13 12 13 12 12 12 11 10 10 9 8 8 8 8 8 8 9 9 9 9 9 10 10 10 10 10 11 11 11 11 11 11 11 12 12 12 12
12 14 17 18 18 14 13 12 13 14 13 11 12 11 10 9 10 10 7 7 8 8 8 9 9 9 9 9 9 10 10 10 10 11 11 10 10 10 11 12 12 12 12 13
12 14 15 17 19 18 13 11 11 12 16 11 11 11 11 11 13 12 8 7 8 8 9 9 10 10 10 10 10 10 10 11 11 11 11 10 10 10 11 11 12 12 13 12
16 16 17 18 18 14 11 11 11 17 15 11 10 11 10 11 10 10 8 8 7 8 9 9 10 10 11 10 10 10 11 11 11 10 10 10 10 10 11 12 13 13 14 14
16 17 18 17 18 18 11 11 13 12 12 11 11 11 9 10 9 9 8 8 8 8 9 9 10 11 11 11 11 11 12 11 10 10 11 11 11 10 11 13 14 14 14 15
15 13 15 14 14 10 10 11 10 10 11 11 11 10 9 9 9 9 9 9 8 9 9 9 10 11 11 11 11 12 12 11 11 12 12 12 12 13 13 14 14 14 14 15
12 11 12 12 11 10 10 10 9 9 10 10 9 9 9 9 9 9 9 9 9 9 9 9 10 10 11 11 11 11 12 11 12 13 13 14 14 14 14 13 13 14 15 15
11 10 12 12 11 10 9 9 9 9 9 9 9 9 9 9 9 9 9 9 9 9 9 9 9 10 10 11 11 10 11 11 12 13 14 14 14 15 14 13 14 14 15 14
12 12 12 12 10 9 9 7 8 8 9 9 9 9 8 8 9 9 9 9 9 9 9 9 9 10 10 10 10 10 10 11 12 13 14 14 15 15 14 14 15 10 11 10